Weather Roundup
Issued by NWS Chicago, IL

Home | Current Version | Previous Version | Text Only | Print | Product List | Glossary Off
Versions: 1 2 3 4 5 6 7 8 9 10 11 12 13 14 15 16 17 18 19 20 21 22 23 24 25 26 27 28 29 30 31 32 33 34 35 36 37 38 39 40 41 42 43 44 45 46 47 48 49 50

000
NZUS59 KLOT 012010
HRRLOT

CHICAGO AREA WEATHER ROUNDUP
NATIONAL WEATHER SERVICE CHICAGO/ROMEOVILLE IL
300 PM CDT FRI AUG 01 2014

NOTE: "FAIR" INDICATES FEW OR NO CLOUDS BELOW 12,000 FEET WITH NO
SIGNIFICANT WEATHER AND/OR OBSTRUCTIONS TO VISIBILITY.

* THESE STATIONS ARE NOT UNDER NWS QUALITY CONTROL. THEY ALSO MAY NOT
  REPORT WEATHER SUCH AS PRECIPITATION OR FOG.

ILZ005-006-012>014-019>023-012100-
NORTHEAST ILLINOIS

CITY           SKY/WX    TMP DP  RH WIND       PRES   REMARKS
OHARE          LGT RAIN  75  60  59 CALM      30.07S
MIDWAY         TSTM      75  64  68 SW9       30.07R
AURORA         MOSUNNY   82  60  47 VRB5      30.07S HX  82
LANSING*       PTSUNNY   75  58  55 E6        30.09R
JOLIET*        MOSUNNY   81  57  43 W6        30.07S HX  81
WAUKEGAN       MOSUNNY   80  59  48 SE12      30.06S HX  81
DUPAGE AIRPORT PTSUNNY   80  60  50 NW9       30.06S HX  81
WHEELING       MOSUNNY   75  63  66 SE6       30.08S
KANKAKEE*      MOSUNNY   81  63  53 SE3       30.08S HX  82
MORRIS*        MOSUNNY   81  61  51 W6        30.06S HX  81
LEWIS AIRPORT* SUNNY     80  60  51 NW5       30.07S HX  80
NORTHERLY IS     N/A     73  60  63 SE12        N/A
$$

WIZ051-052-058>065-066-070>072-012100-
SOUTHEAST WISCONSIN

CITY           SKY/WX    TMP DP  RH WIND       PRES   REMARKS
MILWAUKEE      PTSUNNY   83  56  39 W8        30.04F HX  82
KENOSHA*       PTSUNNY   82  58  43 W3        30.06S HX  82
RACINE*        MOSUNNY   80  60  50 SE9       30.07S HX  81
BURLINGTON     PTSUNNY   81  54  39 SW3       30.06S HX  80
WAUKESHA       MOSUNNY   81  55  41 MISG      30.06F HX  80
WEST BEND      MOSUNNY   81  55  41 W3G9      30.05S HX  80
$$

INZ001>003-010>013-019-020-012100-
NORTHWEST INDIANA

CITY           SKY/WX    TMP DP  RH WIND       PRES   REMARKS
GARY*          LGT RAIN  73  61  64 CALM      30.10R
MICHIGAN CITY* NOT AVBL
RENSSELAER*    NOT AVBL
$$

LMZ740>746-012100-
SOUTHERN LAKE MICHIGAN

STATION/POSITION TIME  SKY/WX   TEMP WIND        PRES    VSBY
                                AIR  DIR/SP/G
                 (UTC)          (F)  (DEG/KT/KT) (MB)    (MI)
HARRISON CRIB    2000            72  140/  7/  9   N/A
BURNHAM HARBOR   2000            72  140/  8/ 10   N/A
CALUMET HARBOR   1900            76  140/  5/  6 1017.2F
BURNS HARBOR     NOT AVBL
MICHIGAN CITY    2000            72  130/ 12/ 18   N/A
$$

ABBREVIATIONS USED IN REMARKS
   TC - TEMPERATURE IN CELSIUS
  WCI - WIND CHILL INDEX
   HX - HEAT INDEX
  VSB - VISIBILITY
$$



USA.gov is the U.S. government's official web portal to all federal, state and local government web resources and services.